Вернуться в каталог

TITAN 3C TRANSTAGE DEB

АктивенMEO
NORAD 30000·DEBRIS·🇺🇸 United States

Запущен Sep 26, 1968 с Cape Canaveral Space Force Station

Loading…

Ближайшие Пролёты (ближайшие 24 часа)

TLE

СвежийSource: Space-Track

Эпоха: Sep 14, 2026, 11:50 UTC

1 30000U 68081J   26257.49332190 -.00000349  00000-0  00000-0 0  9996
2 30000   2.0824  46.0940 0105799 318.5334 112.1130  1.00909227 80144

Отслеживайте TITAN 3C TRANSTAGE DEB в реальном времени с AllMySat

Download on the App Store